User: anonymous   Login
Location: Unspecified
(0.0000°N, 0.0000°E)
Time: 05:12:59
(UTC+00:00)
Language:

OPTUS D3 - Orbit

View from above orbital plane
View from above orbital plane
View from above satellite
View from above satellite

Ground track
Ground track

The orbit data is extracted from the following two-line orbital elements,

1 35756U 09044B   14356.76872002 -.00000142  00000-0  00000+0 0  2512
2 35756 000.0393 001.4260 0003040 288.1694 234.4091 01.00271208 19577
Epoch (UTC): 22 December 2014 18:26:57
Eccentricity: 0.0003040
inclination: 0.0393°
perigee height: 35773 km
apogee height: 35799 km
right ascension of ascending node: 1.4260°
argument of perigee: 288.1694°
revolutions per day: 1.00271208
mean anomaly at epoch: 234.4091°
orbit number at epoch: 1957

The dashed part of the orbit path shows where the satellite is in the earth's shadow,  

DLR